Weather History for OTBD - October, 2010

Change the Weather History Date:

Friday, October 1, 2010

  Actual Average Record
Temperature  
Mean Temperature 92 °F -  
Max Temperature 97 °F 95 °F 109 °F (2001)
Min Temperature 86 °F 74 °F 78 °F (2006)
Cooling Degree Days 26    
Growing Degree Days 42 (Base 50)    
Moisture  
Dew Point 78 °F    
Average Humidity 63    
Maximum Humidity 84    
Minimum Humidity 32    
Precipitation  
Precipitation 0.00 in 0.00 in - ()
Sea Level Pressure  
Sea Level Pressure 29.80 in    
Wind  
Wind Speed 5 mph ()    
Max Wind Speed 12 mph    
Max Gust Speed -    
Visibility 3.9 miles    
Events      
Averages and records for this station are not official NWS values.
T = Trace of Precipitation, MM = Missing Value Source: Averaged Metar Reports

Daily Weather History Graph

Daily Weather History Graph

Search for Another Location

Airport or City:

Trip Planner

Search our weather history database for the weather conditions in past years. The results will help you decide how hot, cold, wet, or windy it might be!

Date:

Astronomy

Oct. 01, 2010 Rise Set
Actual Time 5:25 AM AST 5:20 PM AST
Civil Twilight 5:02 AM AST 5:43 PM AST
Nautical Twilight 4:36 AM AST 6:10 PM AST
Astronomical Twilight 4:09 AM AST 6:36 PM AST
Moon 11:24 PM AST (10/1) 12:26 PM AST (10/1)
Length of Visible Light 12h 40m
Length of Day
11h 55m
Waning Gibbous, 48% of the Moon is Illuminated
Oct 1
Waning Gibbous
Oct 7
New
Oct 15
First Quarter
Oct 23
Full
Oct 30
Last Quarter

Hourly Weather History & Observations

Time (AST) Temp. Heat Index Dew Point Humidity Pressure Visibility Wind Dir Wind Speed Gust Speed Precip Events Conditions
12:00 AM 87.8 °F 108.2 °F 82.4 °F 84% 29.77 in 3.7 mi NE 3.5 mph - N/A   Unknown
1:00 AM 87.8 °F 108.2 °F 82.4 °F 84% 29.77 in 3.7 mi Variable 2.3 mph - N/A   Unknown
2:00 AM 87.8 °F 104.9 °F 80.6 °F 79% 29.77 in 3.7 mi East 3.5 mph - N/A   Unknown
3:00 AM 89 °F - 80 °F 69% 29.79 in 4 mi East 4.6 mph - -   Haze
4:00 AM 87.8 °F 104.9 °F 80.6 °F 79% 29.80 in 3.7 mi Variable 2.3 mph - N/A   Unknown
5:00 AM 87.8 °F 104.9 °F 80.6 °F 79% 29.80 in 3.7 mi ENE 3.5 mph - N/A   Unknown
6:00 AM 87.8 °F 104.9 °F 80.6 °F 79% 29.83 in 3.1 mi ESE 3.5 mph - N/A   Haze
7:00 AM 89.6 °F 108.2 °F 80.6 °F 75% 29.83 in 3.1 mi SE 9.2 mph - N/A   Haze
8:00 AM 91.4 °F 111.0 °F 80.6 °F 71% 29.86 in 3.7 mi ESE 8.1 mph - N/A   Unknown
9:00 AM 93 °F - 78 °F 55% 29.86 in 4 mi SE 6.9 mph - -   Widespread Dust
9:00 AM 93.2 °F 110.2 °F 78.8 °F 63% 29.86 in 3.7 mi SE 6.9 mph - N/A   Unknown
10:00 AM 95.0 °F 115.8 °F 80.6 °F 63% 29.83 in 3.7 mi SE 6.9 mph - N/A   Unknown
11:00 AM 95.0 °F 112.2 °F 78.8 °F 59% 29.83 in 3.7 mi East 9.2 mph - N/A   Partly Cloudy
12:00 PM 96.8 °F 114.8 °F 78.8 °F 56% 29.80 in 3.7 mi East 10.4 mph - N/A   Partly Cloudy
1:00 PM 96.8 °F 114.8 °F 78.8 °F 56% 29.80 in 3.7 mi East 11.5 mph - N/A   Unknown
2:00 PM 95.0 °F 109.7 °F 77.0 °F 56% 29.77 in 3.7 mi East 11.5 mph - N/A   Unknown
3:00 PM 96 °F - 69 °F 32% 29.78 in 4 mi ENE 9.2 mph - -   Widespread Dust
3:00 PM 96.8 °F 103.1 °F 69.8 °F 41% 29.77 in 3.7 mi ENE 9.2 mph - N/A   Unknown
4:00 PM 93.2 °F 107.2 °F 77.0 °F 59% 29.77 in 4.3 mi East 10.4 mph - N/A   Unknown
5:00 PM 93.2 °F 107.2 °F 77.0 °F 59% 29.77 in 3.7 mi ENE 6.9 mph - N/A   Partly Cloudy
6:00 PM 91.4 °F 100.1 °F 73.4 °F 55% 29.77 in 3.7 mi North - - N/A   Partly Cloudy
7:00 PM 91.4 °F 105.1 °F 77.0 °F 63% 29.80 in 4.3 mi NNE 4.6 mph - N/A   Partly Cloudy
8:00 PM 91.4 °F 100.1 °F 73.4 °F 55% 29.80 in 4.3 mi NNE 4.6 mph - N/A   Unknown
9:00 PM 90 °F - 74 °F 51% 29.83 in 5 mi NE 4.6 mph - -   Haze
9:00 PM 89.6 °F 98.2 °F 73.4 °F 59% 29.80 in 5.0 mi NE 4.6 mph - N/A   Unknown
10:00 PM 89.6 °F 99.8 °F 75.2 °F 62% 29.80 in 5.0 mi NE 4.6 mph - N/A   Unknown
11:00 PM 89.6 °F 99.8 °F 75.2 °F 62% 29.80 in 5.0 mi ENE 3.5 mph - N/A   Unknown